Hillsboro, TX

10:52 PM CST on January 17, 2018 (GMT -0600)
Hillsboro

Weather History for KINJ - December, 2013

Change the Weather History Date:

Tuesday, December 17, 2013

  Actual Average (KACT) Record (KACT)
Temperature  
Mean Temperature 52 °F -  
Max Temperature 70 °F 56 °F 81 °F (1990)
Min Temperature 35 °F 35 °F 18 °F (1932)
Degree Days  
Heating Degree Days 12    
Growing Degree Days 2 (Base 50)    
Moisture  
Dew Point 36 °F    
Average Humidity 59    
Maximum Humidity 82    
Minimum Humidity 27    
Precipitation  
Precipitation 0.00 in - - ()
Sea Level Pressure  
Sea Level Pressure 30.26 in    
Wind  
Wind Speed 4 mph (SSE)    
Max Wind Speed 8 mph    
Max Gust Speed -    
Visibility 9 miles    
Events      
Averages and records for this station are not official NWS values.
T = Trace of Precipitation, MM = Missing Value Source: NWS Daily Summary

Daily Weather History Graph

Daily Weather History Graph

Search for Another Location

Airport or City:

Trip Planner

Search our weather history database for the weather conditions in past years. The results will help you decide how hot, cold, wet, or windy it might be!

Date:

Astronomy

Dec. 17, 2013 Rise Set
Actual Time 7:23 AM CST 5:26 PM CST
Civil Twilight 6:55 AM CST 5:53 PM CST
Nautical Twilight 6:25 AM CST 6:24 PM CST
Astronomical Twilight 5:55 AM CST 6:53 PM CST
Moon 6:03 PM CST (12/17) 7:23 AM CST (12/17)
Length of Visible Light 10h 57m
Length of Day
10h 03m
Full, 100% of the Moon is Illuminated
Dec 17
Full
Dec 25
Last Quarter
Jan 1
New
Jan 7
First Quarter
Jan 15
Full

Hourly Weather History & Observations

Time (CST) Temp. Windchill Dew Point Humidity Pressure Visibility Wind Dir Wind Speed Gust Speed Precip Events Conditions
12:15 AM 43.0 °F 38.2 °F 34.0 °F 71% 30.21 in 10.0 mi South 8.1 mph - N/A   Clear
12:35 AM 43.7 °F 41.1 °F 34.2 °F 69% 30.22 in 10.0 mi SSE 4.6 mph - N/A   Clear
12:55 AM 42.8 °F 41.1 °F 33.4 °F 70% 30.22 in 10.0 mi SSE 3.5 mph - N/A   Clear
1:15 AM 41.2 °F 38.2 °F 32.2 °F 70% 30.22 in 10.0 mi SSE 4.6 mph - N/A   Clear
1:35 AM 42.4 °F 38.8 °F 32.7 °F 68% 30.21 in 10.0 mi SSE 5.8 mph - N/A   Clear
1:55 AM 43.2 °F 41.5 °F 33.3 °F 68% 30.22 in 10.0 mi SE 3.5 mph - N/A   Clear
2:15 AM 41.5 °F 38.6 °F 32.9 °F 71% 30.22 in 10.0 mi SE 4.6 mph - N/A   Clear
2:35 AM 39.6 °F 36.3 °F 32.0 °F 74% 30.22 in 10.0 mi SSE 4.6 mph - N/A   Clear
2:55 AM 39.2 °F 35.9 °F 31.8 °F 75% 30.23 in 10.0 mi SSE 4.6 mph - N/A   Clear
3:15 AM 39.6 °F 36.3 °F 32.0 °F 74% 30.23 in 10.0 mi SSE 4.6 mph - N/A   Clear
3:35 AM 38.1 °F 33.7 °F 31.1 °F 76% 30.23 in 10.0 mi SSE 5.8 mph - N/A   Clear
3:55 AM 39.2 °F 35.0 °F 31.8 °F 75% 30.23 in 10.0 mi SSE 5.8 mph - N/A   Clear
4:15 AM 38.3 °F 34.8 °F 31.6 °F 77% 30.23 in 10.0 mi SSE 4.6 mph - N/A   Clear
4:35 AM 38.3 °F 35.9 °F 31.8 °F 77% 30.23 in 10.0 mi SSE 3.5 mph - N/A   Clear
4:55 AM 36.9 °F 34.3 °F 31.1 °F 80% 30.23 in 10.0 mi SSE 3.5 mph - N/A   Clear
5:15 AM 35.8 °F 33.0 °F 30.4 °F 81% 30.23 in 10.0 mi SSE 3.5 mph - N/A   Clear
5:35 AM 36.7 °F - 31.3 °F 81% 30.24 in 10.0 mi Calm Calm - N/A   Clear
5:55 AM 36.9 °F 34.3 °F 31.5 °F 81% 30.24 in 10.0 mi SSE 3.5 mph - N/A   Clear
6:15 AM 36.7 °F 32.9 °F 31.1 °F 80% 30.24 in 10.0 mi South 4.6 mph - N/A   Clear
6:35 AM 37.2 °F 32.6 °F 31.1 °F 79% 30.24 in 10.0 mi South 5.8 mph - N/A   Clear
6:55 AM 36.5 °F 31.8 °F 30.9 °F 80% 30.24 in 10.0 mi South 5.8 mph - N/A   Clear
7:15 AM 36.9 °F 32.2 °F 31.5 °F 81% 30.25 in 10.0 mi South 5.8 mph - N/A   Clear
7:35 AM 35.8 °F - 30.9 °F 82% 30.26 in 10.0 mi Calm Calm - N/A   Clear
7:55 AM 37.4 °F - 31.8 °F 80% 30.27 in 10.0 mi Calm Calm - N/A   Clear
8:15 AM 37.8 °F 34.2 °F 32.2 °F 80% 30.27 in 10.0 mi SSE 4.6 mph - N/A   Clear
8:35 AM 40.3 °F 38.2 °F 34.3 °F 79% 30.28 in 10.0 mi South 3.5 mph - N/A   Clear
8:55 AM 42.8 °F - 35.6 °F 76% 30.28 in 7.0 mi Calm Calm - N/A   Clear
9:15 AM 45.3 °F 43.0 °F 37.2 °F 73% 30.29 in 10.0 mi SSW 4.6 mph - N/A   Clear
9:35 AM 47.5 °F - 37.9 °F 69% 30.30 in 10.0 mi SW 3.5 mph - N/A   Clear
9:55 AM 50.0 °F - 38.5 °F 65% 30.31 in 10.0 mi SW 3.5 mph - N/A   Clear
10:15 AM 51.3 °F - 39.0 °F 63% 30.31 in 10.0 mi SW 3.5 mph - N/A   Clear
10:35 AM 53.2 °F - 40.3 °F 61% 30.31 in 10.0 mi Calm Calm - N/A   Clear
10:55 AM 57.2 °F - 39.0 °F 51% 30.30 in 10.0 mi West 4.6 mph - N/A   Clear
11:15 AM 59.4 °F - 39.7 °F 48% 30.30 in 10.0 mi West 6.9 mph - N/A   Clear
11:35 AM 62.1 °F - 38.3 °F 41% 30.29 in 10.0 mi West 4.6 mph - N/A   Clear
11:55 AM 63.7 °F - 36.9 °F 37% 30.28 in 10.0 mi West 5.8 mph - N/A   Clear
12:15 PM 65.3 °F - 35.8 °F 34% 30.27 in 10.0 mi WNW 3.5 mph - N/A   Clear
12:35 PM 66.6 °F - 36.7 °F 33% 30.26 in 10.0 mi WNW 4.6 mph - N/A   Clear
12:55 PM 66.9 °F - 35.1 °F 31% 30.25 in 10.0 mi Calm Calm - N/A   Clear
1:15 PM 68.0 °F - 35.4 °F 30% 30.24 in 10.0 mi Calm Calm - N/A   Clear
1:35 PM 68.5 °F - 35.4 °F 30% 30.24 in 10.0 mi Calm Calm - N/A   Clear
1:55 PM 69.1 °F - 36.5 °F 30% 30.23 in 10.0 mi Calm Calm - N/A   Clear
2:15 PM 69.4 °F - 36.5 °F 30% 30.23 in 10.0 mi NNW 3.5 mph - N/A   Clear
2:35 PM 69.6 °F - 37.0 °F 30% 30.23 in 10.0 mi NNE 3.5 mph - N/A   Clear
2:55 PM 70.0 °F - 36.0 °F 29% 30.23 in 10.0 mi Calm Calm - N/A   Clear
3:15 PM 70.2 °F - 35.4 °F 28% 30.23 in 10.0 mi Calm Calm - N/A   Clear
3:35 PM 70.2 °F - 35.1 °F 28% 30.23 in 10.0 mi Calm Calm - N/A   Clear
3:55 PM 70.0 °F - 34.2 °F 27% 30.23 in 10.0 mi Calm Calm - N/A   Clear
4:15 PM 70.0 °F - 35.1 °F 28% 30.24 in 10.0 mi Calm Calm - N/A   Clear
4:35 PM 69.3 °F - 37.0 °F 31% 30.24 in 10.0 mi Calm Calm - N/A   Clear
4:55 PM 67.3 °F - 38.5 °F 35% 30.25 in 7.0 mi NE 5.8 mph - N/A   Clear
5:15 PM 64.6 °F - 38.3 °F 38% 30.25 in 10.0 mi ENE 3.5 mph - N/A   Clear
5:35 PM 62.1 °F - 37.8 °F 41% 30.25 in 10.0 mi ENE 5.8 mph - N/A   Clear
5:55 PM 59.9 °F - 37.9 °F 44% 30.25 in 10.0 mi East 6.9 mph - N/A   Clear
6:15 PM 58.1 °F - 38.3 °F 48% 30.26 in 10.0 mi East 8.1 mph - N/A   Clear
6:35 PM 57.0 °F - 38.8 °F 51% 30.26 in 10.0 mi East 8.1 mph - N/A   Clear
6:55 PM 56.3 °F - 39.6 °F 53% 30.27 in 10.0 mi East 8.1 mph - N/A   Clear
7:15 PM 55.4 °F - 39.7 °F 56% 30.28 in 10.0 mi East 8.1 mph - N/A   Clear
7:35 PM 55.4 °F - 39.7 °F 56% 30.28 in 10.0 mi East 8.1 mph - N/A   Clear
7:55 PM 54.7 °F - 39.6 °F 57% 30.28 in 10.0 mi East 8.1 mph - N/A   Clear
8:15 PM 54.9 °F - 39.6 °F 56% 30.28 in 10.0 mi East 8.1 mph - N/A   Clear
8:35 PM 53.8 °F - 39.6 °F 59% 30.28 in 10.0 mi East 8.1 mph - N/A   Clear
8:55 PM 54.0 °F - 39.4 °F 58% 30.28 in 10.0 mi East 8.1 mph - N/A   Clear
9:15 PM 53.6 °F - 39.4 °F 59% 30.28 in 10.0 mi ESE 6.9 mph - N/A   Clear
9:35 PM 48.6 °F - 38.1 °F 67% 30.28 in 7.0 mi South 3.5 mph - N/A   Clear
9:55 PM 47.8 °F - 37.4 °F 67% 30.28 in 10.0 mi SSE 3.5 mph - N/A   Clear
10:15 PM 47.5 °F - 36.9 °F 67% 30.28 in 5.0 mi Calm Calm - N/A   Haze
10:35 PM 47.3 °F - 37.6 °F 69% 30.28 in 4.0 mi Calm Calm - N/A   Haze
10:55 PM 47.3 °F - 37.6 °F 69% 30.28 in 5.0 mi Calm Calm - N/A   Haze
11:15 PM 48.6 °F - 37.6 °F 66% 30.28 in 3.0 mi Calm Calm - N/A   Haze
11:35 PM 47.8 °F - 37.8 °F 68% 30.28 in 3.0 mi Calm Calm - N/A   Haze
11:55 PM 46.2 °F 45.0 °F 37.0 °F 70% 30.27 in 5.0 mi SSE 3.5 mph - N/A   Haze